CZ-6A DEB, 61299

Orbit data source: Space-Track

CZ-6A DEB, 61299 is space debris in LEO originally from a launch on Tue, 06 Aug 2024 UTC launched from the Taiyaun Space Center, China (TSC). Debris objects in space refer to the collection of defunct objects orbiting the Earth. Examples of debris include non-operational satellites, rocket bodies, and fragments generated from explosions, collisions, or faulty payload assembly.

Loading next visibility...
Identifier
61299, 2024-140TL
Orbit
LEO
Country
Flag of CNCN / PRC
Related business
Manufacturer
SAST
Mission
Spacecraft
Bus & Motor
Unknown
Mass
Unknown
Launch date (UTC)
2024-08-06 (2 years ago)
Launch vehicle
Unknown
Launch site
Taiyaun Space Center, China (TSC)
Object type
Payload
Rocket body
Debris
Shape & HBR
Unknown shape, 0.1 m
Radar Cross Section
Medium (>0.1 m² and <1 m²)

Expand to show TLE details & history
Last TLE update: 15 hours ago

TLE from 15 hours ago
0 CZ-6A DEB
1 61299U 24140TL  26171.24002944  .00002126  00000-0  83628-3 0  9991
2 61299  88.9879 272.5194 0027645 169.7366 190.4399 14.28723530 94250
Epoch: 2026-06-20T05:45Z
TLE epoch observation values (Epoch: 2026-06-20T05:45:38.543Z)
Latitude
-0.00007°
Longitude
-82.34869°
Altitude
818.577 km
Speed
7.434 km/s
True Right ascension
18h 10m 04s
True Declination
0° 00' 00"
Sunlit
Object was in full shadow at epoch
Visualization orbit readout
Latitude
Unknown
Longitude
Unknown
Altitude
Unknown
Speed
Unknown
Apparent Right ascension
Unknown
Apparent Declination
Unknown
Sunlit
N/A
Visualization observer readout
Local Sidereal Time
07:22:43
Azimuth
Unknown
Elevation
Unknown
Doppler factor
Unknown
Orbital elements
Apogee altitude
812.764 km
Perigee altitude
773.115 km
Semi-major axis
7,171.076 km
Eccentricity
0.00276
Inclination
88.9879°
RAAN
272.5194°
Arg. of periapsis
169.7366°
True anomaly
190.38269°
Mean anomaly
190.4399°
Eccentric anomaly
190.41128°
Mean motion
3.5741 °/min
Orbital period
100.72 mins
BSTAR
0.00083628
Loading maneuver chart data...
Computing Atmospheric mass density...
Loading historical data...
Loading historical data...
Loading historical data...
Loading historical data...
Loading historical data...
Loading historical data...
Loading historical data...

Documentation

Showing up to 5 results
|